This is the latest recevied weather packets stored in our database for station/object KC3ULW-13. If no packets are shown the sender has not sent any weather packets the latest 10 day(s).
| Time | Temp. | Humidity | Pressure | Rain* | Wind** | Luminosity | Snow |
|---|---|---|---|---|---|---|---|
| 1777312600 | 22.78° C | 35% | 1022 hPa | 0 mm | - | 586 W/m² | - |
| 1777312297 | 22.22° C | 34% | 1022.2 hPa | 0 mm | - | 537 W/m² | - |
| 1777311994 | 22.22° C | 35% | 1022.5 hPa | 0 mm | - | 433 W/m² | - |
| 1777311690 | 22.22° C | 35% | 1022.4 hPa | 0 mm | - | 485 W/m² | - |
| 1777311388 | 22.22° C | 34% | 1022.6 hPa | 0 mm | - | 458 W/m² | - |
| 1777311085 | 22.22° C | 34% | 1022.8 hPa | 0 mm | - | 461 W/m² | - |
| 1777310783 | 22.22° C | 33% | 1022.6 hPa | 0 mm | - | 543 W/m² | - |
| 1777310481 | 22.22° C | 34% | 1022.9 hPa | 0 mm | - | 481 W/m² | - |
| 1777310177 | 21.67° C | 36% | 1023 hPa | 0 mm | - | 563 W/m² | - |
| 1777309875 | 21.67° C | 39% | 1023 hPa | 0 mm | - | 535 W/m² | - |
| 1777309573 | 21.67° C | 36% | 1023.1 hPa | 0 mm | - | 518 W/m² | - |
| 1777309270 | 21.67° C | 37% | 1023 hPa | 0 mm | - | 537 W/m² | - |
| 1777308968 | 21.67° C | 36% | 1023.2 hPa | 0 mm | - | 626 W/m² | - |
| 1777308664 | 21.67° C | 36% | 1023.1 hPa | 0 mm | - | 638 W/m² | - |
| 1777308359 | 21.67° C | 37% | 1023.3 hPa | 0 mm | - | 636 W/m² | - |
| 1777308054 | 22.22° C | 37% | 1023.2 hPa | 0 mm | - | 538 W/m² | - |
| 1777307753 | 21.11° C | 39% | 1023.5 hPa | 0 mm | - | 583 W/m² | - |
| 1777307449 | 21.11° C | 38% | 1023.6 hPa | 0 mm | - | 591 W/m² | - |
| 1777307147 | 21.11° C | 40% | 1023.3 hPa | 0 mm | - | 658 W/m² | - |
| 1777306844 | 21.11° C | 39% | 1023.4 hPa | 0 mm | - | 612 W/m² | - |
| 1777306541 | 21.11° C | 40% | 1023.6 hPa | 0 mm | - | 503 W/m² | - |
| 1777306236 | 20.56° C | 41% | 1023.6 hPa | 0 mm | - | 540 W/m² | - |
| 1777305937 | 20.56° C | 41% | 1023.5 hPa | 0 mm | - | 603 W/m² | - |
| 1777305633 | 20° C | 41% | 1023.7 hPa | 0 mm | - | 669 W/m² | - |
| 1777305330 | 20° C | 41% | 1023.6 hPa | 0 mm | - | 617 W/m² | - |
* Rain latest hour (hover to see other rain measurements)
** Current wind speed in m/s (hover to see current wind gust speed)